Flag Weather past 2 weeks in Kalamazoo, Michigan, U.S.A.

Now
28 °F

Passing clouds.


Feels Like: 21 °F
Forecast: 31 / 42 °F
Wind: 7 mph from South

Location: Kalamazoo / Battle Creek International Airport

Current Time: Nov 28, 2014 at 9:26:06 PM

Latest Report: Nov 28, 2014 at 8:53 PM


Visibility: 10 mi

Pressure: 30.07 "Hg

Humidity: 69%

Dew point: 19 °F

Location of KalamazooLocation

Historic Weather in Kalamazoo — Graph

°F

Kalamazoo temperature yesterday

Maximum temperature yesterday: 32 °F (at 12:53 PM)
Minimum temperature yesterday: 21 °F (at 10:53 PM)
Average temperature yesterday: 27 °F

Past Weeks' High & Low Weather Summary

 TemperatureHumidityPressure
High53 °F (Nov 23, 2:53 PM)93% (Nov 14, 3:00 PM)30.50 "Hg (Nov 14, 3:00 PM)
Low13 °F (Nov 18, 4:58 AM)55% (Nov 21, 4:53 PM)29.05 "Hg (Nov 24, 1:53 AM)
Average28 °F78%30.04 "Hg
* Reported Nov 13 7:53 PM — Nov 28 7:53 PM, Kalamazoo, Weather by CustomWeather, © 2014

Note: Actual official high and low records may vary slightly from our data, if they occured in-between our weather recording intervals... More about our weather records

Advertising

Kalamazoo weather history for previous 24 hours

 ConditionsComfort  
Time TempWeatherWind HumidityBarometerVisibility
7:53 PM
Nov 28
27 °FPassing clouds.6 mph72%30.09 "Hg10 mi
6:53 PM28 °FOvercast.9 mph69%30.09 "Hg10 mi
5:53 PM27 °FMostly cloudy.8 mph72%30.09 "Hg10 mi
4:53 PM27 °FMostly cloudy.7 mph69%30.12 "Hg10 mi
3:53 PM26 °FOvercast.9 mph69%30.14 "Hg10 mi
2:53 PM25 °FOvercast.9 mph72%30.17 "Hg10 mi
1:53 PM24 °FLight snow. Mostly cloudy.12 mph77%30.21 "Hg3 mi
12:53 PM24 °FLight snow. Cloudy.13 mph75%30.24 "Hg4 mi
11:53 AM24 °FMostly cloudy.12 mph71%30.28 "Hg10 mi
10:53 AM25 °FBroken clouds.12 mph69%30.32 "Hg10 mi
9:53 AM23 °FOvercast.9 mph72%30.33 "Hg10 mi
8:53 AM22 °FMostly cloudy.9 mph75%30.33 "Hg10 mi
7:53 AM22 °FOvercast.9 mph75%30.34 "Hg10 mi
6:53 AM22 °FOvercast.6 mph82%30.37 "Hg10 mi
5:53 AM22 °FMostly cloudy.5 mph82%30.38 "Hg10 mi
5:01 AM21 °FMostly cloudy.5 mph81%30.33 "Hg10 mi
4:53 AM21 °FMostly cloudy.3 mph81%30.37 "Hg10 mi
3:53 AM21 °FOvercast.No wind74%30.37 "Hg10 mi
2:53 AM21 °FOvercast.No wind78%30.38 "Hg10 mi
1:53 AM21 °FOvercast.No wind81%30.37 "Hg10 mi
12:53 AM21 °FOvercast.3 mph81%30.37 "Hg10 mi
11:53 PM
Nov 27
21 °FOvercast.6 mph78%30.38 "Hg10 mi
10:53 PM21 °FOvercast.9 mph81%30.38 "Hg10 mi
9:53 PM22 °FLight snow. Overcast.8 mph78%30.38 "Hg8 mi
Weather by CustomWeather, © 2014

See weather overviewHow to use our weather pages